Track COSMOS 1912 now! 10-day predictions COSMOS 1912 is classified as:
1 18791U 88002D 19052.78390962 +.00000028 +00000-0 +91981-4 0 9997 2 18791 082.6115 145.2152 0011952 074.7683 041.7832 12.64994052435991